Wind_Speed
8 8 7 7 7 7 14 9 11 8 6 2 2 6 5 9 11 5 2 4 8 17 18 20 21 19 17 15 15 18 23 24 27 28 29 29 29 27 26 27 26 26 26 26 25 25 26 26 30
9 8 7 3 8 14 13 10 10 5 3 5 6 9 11 12 3 1 4 5 12 16 16 17 21 19 17 15 14 18 24 26 28 28 29 30 29 28 29 26 24 27 27 26 24 24 24 29 31
10 8 6 5 12 18 14 5 13 5 7 10 5 6 7 3 2 1 2 11 15 16 15 15 18 18 17 15 15 17 24 27 28 29 30 31 30 25 21 28 25 25 26 25 24 24 25 29 31
9 7 4 10 19 11 11 7 5 5 4 5 9 9 3 0 1 1 7 14 18 17 15 15 17 16 15 14 15 18 24 26 28 30 31 32 25 25 29 29 27 27 27 24 24 25 27 29 30
8 4 9 14 20 17 9 15 9 10 3 6 7 13 11 7 2 3 10 17 18 16 14 14 17 14 14 14 17 21 25 28 31 29 29 29 26 24 20 27 29 26 26 27 27 29 29 29 30
7 5 9 14 17 14 12 16 16 18 16 14 14 16 13 7 6 8 14 18 17 15 14 14 16 15 14 16 19 22 26 29 33 28 29 29 27 23 22 27 31 27 29 28 29 30 30 29 28
13 9 15 17 18 14 14 9 15 16 17 18 15 17 2 3 5 10 16 16 16 15 14 15 16 15 16 17 21 24 26 30 35 32 30 28 27 27 27 32 31 31 29 31 31 30 29 28 26
9 8 17 15 16 18 8 7 14 12 17 7 6 8 8 7 8 12 16 16 15 14 14 15 16 16 16 17 22 27 30 32 31 30 28 29 28 28 27 30 31 30 33 32 30 29 28 26 26
10 10 15 21 18 15 5 8 3 6 14 15 10 9 7 7 14 14 17 17 14 13 14 16 15 17 17 17 22 28 31 30 30 30 30 27 23 24 25 24 31 35 35 32 29 27 26 26 24
12 14 21 17 12 17 16 14 11 11 13 13 16 15 2 9 14 19 20 19 19 17 17 15 16 17 18 18 23 25 30 33 31 29 28 23 23 23 24 26 33 36 33 28 24 24 26 22 19
11 22 17 16 14 17 18 19 13 17 20 20 16 14 6 11 14 16 20 21 22 21 20 18 18 18 19 19 22 23 32 33 31 32 24 23 23 24 25 28 31 28 26 21 21 22 20 17 17
16 18 17 20 17 15 19 20 22 19 24 22 18 12 9 12 13 13 19 23 25 26 22 20 20 19 19 20 23 23 27 30 30 27 27 23 23 26 26 29 26 24 22 20 21 21 17 17 15
20 20 18 18 17 17 19 24 25 29 22 23 21 20 18 16 16 16 18 22 24 25 25 24 23 22 22 21 22 24 22 25 30 26 25 22 24 25 27 26 25 24 22 20 18 17 19 16 16
13 13 17 16 17 18 18 24 22 28 13 22 24 25 21 21 18 18 18 23 27 27 27 26 25 23 23 22 21 19 25 23 29 27 25 23 24 26 27 27 25 23 22 20 19 20 18 16 19
15 20 19 20 21 19 18 27 33 27 24 23 21 20 23 23 23 21 23 27 32 32 30 30 27 26 23 23 22 24 23 23 27 29 25 26 24 25 26 26 26 24 22 20 19 18 19 18 16
20 20 19 13 5 12 13 25 21 8 13 22 21 20 21 23 20 26 27 28 31 31 32 31 30 28 26 25 24 18 27 28 23 26 25 24 23 24 25 24 24 23 21 20 20 16 17 17 16
15 18 17 15 9 13 14 25 14 2 5 10 16 19 16 19 19 25 27 28 31 35 34 34 32 31 29 26 25 21 26 28 26 25 26 26 25 25 24 24 23 22 21 19 19 17 18 18 16
15 17 17 18 6 8 19 26 20 20 21 15 16 15 15 17 16 23 27 29 31 34 33 34 32 32 31 28 25 22 22 24 26 25 26 28 26 26 25 24 23 22 21 19 18 18 18 17 17
19 21 25 22 20 22 23 26 24 21 20 18 21 20 19 18 14 17 26 30 32 34 36 36 35 35 33 29 27 25 24 27 25 23 27 29 28 26 25 24 24 22 21 21 21 19 20 18 19
16 21 25 21 15 12 18 25 24 25 28 25 24 22 23 20 19 16 22 29 34 36 39 38 36 35 36 31 30 27 26 27 28 27 26 29 29 28 26 24 25 24 22 22 23 23 21 14 20
19 19 19 19 18 22 23 28 27 30 29 27 25 28 25 25 22 20 19 27 32 35 39 40 39 38 37 34 31 27 26 25 26 29 28 31 31 31 29 25 26 25 24 24 25 24 22 18 21
17 14 19 20 16 15 13 18 19 15 16 20 26 25 27 26 25 22 21 23 34 36 37 39 38 38 38 37 34 34 33 30 31 32 32 32 32 31 30 28 26 26 25 25 26 24 22 18 24
16 20 24 24 20 19 24 13 18 16 17 21 21 25 27 27 25 24 23 25 34 35 35 36 38 38 38 40 36 36 32 31 31 31 31 32 33 33 32 29 28 27 27 26 26 25 23 21 20
15 24 24 22 16 13 27 17 17 16 21 21 19 18 23 25 24 22 22 26 30 34 35 36 38 38 38 40 40 38 34 31 31 32 32 33 33 34 33 31 30 28 28 27 27 26 24 23 22
22 19 8 7 7 13 12 11 18 18 18 19 12 15 12 18 22 19 21 20 26 32 35 35 37 38 40 41 41 39 35 33 32 34 34 33 32 34 34 34 31 30 29 27 25 25 24 26 25
14 12 6 8 9 13 18 7 6 25 27 26 24 22 12 14 12 16 19 20 24 32 33 34 37 37 39 40 40 40 38 35 32 35 33 35 35 35 34 34 32 30 29 28 26 24 25 24 26
10 14 17 7 18 13 10 12 21 28 26 26 25 22 19 18 16 14 15 14 25 29 33 36 37 40 42 42 40 40 40 38 36 34 34 34 34 34 34 34 34 32 30 29 26 25 24 24 26
12 10 8 6 6 7 6 8 13 28 28 28 27 24 23 21 20 18 15 14 17 29 33 35 38 40 41 41 40 41 42 41 38 36 35 33 34 34 34 34 35 33 32 30 28 25 25 26 25
9 9 6 7 7 5 7 6 14 21 19 26 26 24 22 22 19 17 16 14 16 21 30 32 36 36 36 38 37 35 36 38 36 36 35 35 33 35 35 37 36 36 33 31 30 27 25 27 25
9 10 10 7 6 7 7 4 19 22 19 22 25 20 20 19 18 16 16 16 17 20 28 29 32 35 36 35 34 32 29 32 33 33 33 32 32 34 35 34 34 35 34 32 31 29 25 26 27
Wind_Direction
157 161 184 222 237 235 255 247 261 239 238 252 304 231 284 324 296 337 86 139 147 157 160 164 169 170 172 174 174 177 178 179 180 177 169 161 157 154 145 147 149 145 139 131 126 127 130 133 130
177 171 198 228 247 240 243 226 232 255 288 301 235 251 256 282 327 232 155 159 162 158 161 169 171 171 174 174 175 178 178 179 181 178 170 163 159 154 146 138 146 140 134 126 124 130 132 133 130
173 198 230 231 241 247 262 201 251 288 283 255 255 236 291 274 164 6 131 161 166 162 166 174 171 174 180 178 179 182 178 180 180 178 172 166 158 153 148 151 147 135 129 123 127 135 136 137 134
174 198 231 244 248 243 281 266 244 271 217 227 260 268 174 17 309 110 147 155 162 163 168 183 172 176 182 173 172 170 172 180 181 177 171 168 172 173 161 165 153 148 137 136 139 141 143 137 134
210 241 243 244 255 260 220 259 273 263 243 251 273 274 263 160 226 176 155 160 161 163 166 169 171 170 164 159 161 163 167 177 177 175 174 172 171 165 177 175 146 137 141 145 146 146 143 138 136
207 268 237 247 255 251 241 256 267 264 263 263 276 269 271 95 175 174 164 163 161 162 161 168 169 164 155 154 158 160 165 174 180 167 165 163 159 153 146 166 151 146 150 149 146 145 143 138 137
251 228 253 262 270 269 256 263 254 261 264 263 265 275 322 168 179 167 164 163 164 162 161 164 165 160 152 153 159 159 163 163 161 160 158 159 152 150 143 143 150 153 149 144 146 145 143 139 137
250 261 259 251 260 265 308 245 257 268 264 270 275 259 271 94 156 158 163 164 165 164 162 162 164 160 154 149 160 158 160 153 154 154 157 155 154 155 153 153 154 151 146 146 146 146 143 141 140
243 246 246 252 258 270 198 265 199 276 269 247 235 270 4 142 156 164 169 168 169 165 167 167 166 164 158 154 156 157 155 156 158 155 156 151 147 146 149 153 154 151 149 147 146 147 147 143 142
225 234 250 276 280 275 281 278 283 279 265 246 244 236 190 183 181 181 184 181 181 172 173 171 171 165 163 157 157 152 154 153 154 154 149 151 150 150 152 156 154 154 154 152 154 153 149 136 140
231 247 274 260 262 275 280 279 269 267 259 253 251 261 229 216 203 201 199 192 185 183 173 174 173 170 168 161 161 155 159 158 153 152 151 151 148 147 150 152 154 155 160 161 159 153 152 154 152
253 252 256 268 267 270 272 283 274 260 258 269 277 280 285 219 215 214 208 197 186 186 181 179 179 174 178 165 168 165 158 166 165 165 153 153 152 148 152 157 160 160 162 158 163 167 166 160 154
250 259 260 262 258 264 273 268 271 263 259 266 266 267 253 233 238 229 223 205 194 190 186 184 181 181 177 175 171 171 169 163 166 167 168 161 160 156 159 160 161 163 161 160 162 163 154 148 148
275 271 264 258 256 256 259 266 268 259 260 253 256 254 251 249 235 230 216 205 200 194 189 184 182 184 182 177 176 174 173 172 170 171 172 168 165 163 165 167 167 165 165 162 156 153 150 144 149
278 272 266 256 254 243 250 260 250 259 248 257 254 247 245 243 236 229 212 207 199 198 190 189 184 182 185 181 177 177 181 176 173 171 172 169 165 164 166 167 169 168 165 159 153 146 144 139 140
267 266 267 265 269 231 224 254 256 324 254 239 254 250 247 242 231 225 215 212 201 197 193 191 188 183 186 187 181 172 178 183 171 168 170 174 170 169 167 167 167 166 163 162 160 156 144 142 142
237 262 270 269 243 252 228 265 285 235 320 261 255 261 246 250 231 221 213 208 201 199 191 191 190 187 184 187 185 185 183 179 174 167 169 179 176 174 171 172 169 166 165 165 163 159 152 143 140
318 299 291 281 262 288 283 270 266 272 274 268 279 277 270 255 239 221 217 207 204 202 193 191 189 188 182 181 184 181 182 184 180 179 180 179 179 178 176 175 172 170 171 169 166 159 157 154 149
288 280 277 278 281 278 269 272 273 276 272 259 263 264 264 261 245 225 215 207 203 201 196 193 189 188 182 176 180 176 185 187 190 184 182 181 183 182 178 177 176 177 177 174 169 158 153 148 151
297 283 279 290 281 268 271 268 261 256 257 259 261 261 259 259 250 232 214 206 200 199 199 195 192 191 188 182 183 187 189 188 190 188 186 187 186 185 183 181 180 182 181 177 170 165 155 159 168
321 298 288 293 311 284 271 269 262 256 256 258 256 255 254 253 249 238 215 204 198 202 198 197 192 189 192 188 185 193 189 188 187 190 187 191 190 187 187 186 185 185 187 182 177 177 176 168 184
313 325 313 295 292 275 283 278 270 281 264 249 241 247 245 247 240 242 213 203 204 203 200 199 193 191 193 191 189 192 188 188 190 189 194 193 193 190 190 191 189 188 190 189 189 189 191 184 183
307 310 289 283 269 269 265 255 271 270 257 256 254 245 249 246 247 234 228 207 205 205 199 197 195 196 194 194 192 190 194 194 187 187 192 193 195 196 194 193 193 193 193 196 196 195 198 198 195
320 312 284 254 250 259 255 252 271 258 261 262 267 260 252 248 254 246 233 214 203 202 202 195 197 198 195 195 195 192 195 193 187 185 189 193 195 198 198 196 196 197 199 199 199 201 203 204 208
337 344 321 246 190 248 271 239 256 278 278 286 308 305 324 315 260 255 240 211 211 201 196 196 196 195 197 197 196 194 194 195 191 187 185 190 194 197 198 196 197 200 202 203 204 206 211 212 212
318 341 328 305 311 312 310 243 41 13 8 3 349 332 307 303 322 294 245 218 214 208 194 196 194 198 195 198 198 193 194 196 196 192 191 192 194 196 200 198 200 202 203 205 207 211 213 215 216
338 342 312 263 257 261 245 320 43 1 2 356 344 342 336 331 324 314 296 278 211 211 199 201 195 200 200 199 198 195 194 197 197 197 197 197 197 195 198 200 201 203 206 207 208 212 215 214 216
320 328 334 339 286 299 336 62 4 358 355 354 348 339 338 335 331 323 302 270 257 217 212 198 204 207 201 198 199 197 196 198 198 198 199 200 200 199 199 201 203 204 205 208 210 215 217 214 217
327 349 333 289 258 296 326 65 5 351 348 354 347 340 336 332 337 334 332 283 255 243 217 201 201 210 204 201 199 198 200 198 200 199 201 201 200 199 199 203 205 205 205 207 210 214 214 215 216
343 346 332 293 290 294 268 101 9 350 344 357 347 335 335 343 345 347 348 353 323 230 213 211 201 207 206 203 201 201 199 199 200 202 204 201 200 203 204 204 205 207 209 209 210 212 214 215 216
Height
778 779 779 775 777 763 755 747 735 741 742 731 732 735 735 731 738 744 742 744 746 749 752 754 757 760 763 765 768 772 777 780 784 788 791 794 798 801 804 807 811 811 815 817 820 823 828 830 831
780 780 777 764 773 760 750 738 746 733 731 733 734 736 737 738 730 734 740 746 748 751 754 758 758 760 763 765 767 773 777 781 785 789 793 796 800 803 806 807 814 814 816 819 824 828 831 832 834
780 779 767 763 759 756 744 732 737 732 734 734 735 732 730 732 734 736 741 745 749 752 756 759 759 761 763 764 768 773 777 782 786 790 793 798 802 805 807 813 817 817 818 821 828 832 834 835 837
779 775 768 769 754 741 751 736 739 737 733 732 730 736 726 733 736 739 742 745 749 753 756 758 760 762 764 765 769 773 777 783 787 791 795 798 804 806 810 813 817 819 820 825 831 834 836 838 840
777 765 766 762 749 738 742 737 735 739 737 734 731 735 728 731 738 741 743 746 750 754 757 760 761 764 765 766 770 774 777 783 787 790 796 801 804 806 809 813 816 820 823 829 832 834 838 840 842
771 763 766 756 742 733 742 736 735 734 733 732 734 731 726 733 738 742 744 748 751 755 758 761 763 765 766 768 772 774 778 783 788 793 798 801 804 809 811 813 818 823 826 830 834 837 840 842 845
770 763 758 747 741 738 737 734 740 737 733 731 724 733 724 731 738 742 745 749 753 756 759 762 765 767 768 770 774 777 781 785 789 795 799 803 806 810 813 816 820 825 827 832 836 839 842 845 848
766 763 760 747 748 740 729 739 734 734 731 722 728 731 725 729 740 743 747 751 755 758 760 762 765 768 770 772 776 779 783 788 793 796 801 804 808 811 815 819 822 826 830 834 838 842 845 848 850
767 768 756 745 744 738 735 740 730 731 732 726 725 725 728 736 740 744 747 751 756 758 760 763 766 768 770 773 777 780 786 791 795 799 802 807 812 815 818 822 824 828 832 836 841 844 847 849 852
765 758 748 737 737 739 735 735 737 738 730 729 724 722 731 737 739 739 742 747 753 757 760 763 766 768 771 774 778 781 785 790 794 797 803 808 812 816 819 823 826 830 834 839 843 845 848 851 855
756 755 741 737 744 743 738 737 733 737 734 722 723 718 719 733 735 737 739 743 749 755 757 761 765 768 771 773 778 781 785 789 795 798 802 807 812 816 821 825 829 833 838 842 845 847 850 851 854
761 749 748 744 742 744 742 733 732 732 724 719 717 718 722 728 730 731 735 738 744 750 755 759 764 767 770 773 777 781 784 788 793 790 801 807 812 816 821 825 830 834 838 841 843 846 848 851 854
755 749 743 743 743 743 743 737 731 721 722 720 719 718 719 721 723 726 730 735 742 747 752 757 761 766 769 772 776 781 784 788 793 798 803 806 812 816 821 825 829 832 836 839 842 844 848 851 853
744 743 740 738 738 739 741 730 727 703 715 716 716 714 712 713 715 719 726 731 737 744 749 754 758 763 767 771 775 779 783 787 790 796 802 807 811 815 819 824 828 832 834 838 841 844 847 850 854
752 751 739 733 730 733 731 725 710 702 705 707 707 704 703 703 707 711 718 723 730 738 744 750 755 759 765 769 774 777 782 786 789 793 801 804 810 815 818 822 826 830 834 837 840 844 847 851 855
753 744 742 720 721 720 731 709 689 686 692 698 699 694 693 693 698 703 710 718 725 732 737 746 751 755 762 766 771 775 779 784 788 792 798 803 808 813 817 821 825 829 833 837 840 845 848 851 855
739 737 727 720 715 723 725 706 696 694 697 697 693 688 686 687 688 696 702 711 718 725 730 739 746 751 756 764 769 774 777 783 786 791 796 803 807 812 816 820 824 828 832 836 840 844 846 851 856
752 743 736 734 723 728 726 709 703 698 695 697 693 687 684 681 681 687 695 703 711 720 726 733 741 746 752 759 767 772 776 781 784 788 793 800 805 810 814 818 822 826 830 834 838 842 847 851 856
773 764 749 738 730 732 728 721 712 703 695 697 694 688 680 678 676 679 686 695 703 712 720 725 733 739 747 752 759 765 770 776 783 787 793 798 803 807 811 815 820 824 828 832 837 841 846 850 854
768 757 742 734 727 731 722 711 705 701 693 692 689 685 680 675 673 673 680 688 696 703 711 718 725 735 740 745 752 761 766 772 777 785 791 795 800 804 808 812 817 821 826 830 834 838 843 849 852
769 762 750 744 739 729 722 709 700 691 690 686 683 677 675 670 668 667 672 681 691 696 702 710 717 727 736 740 749 757 762 769 773 779 785 790 795 800 804 809 814 819 823 828 831 835 838 842 848
774 760 757 754 746 724 700 695 681 672 671 671 672 671 665 662 660 661 661 671 683 689 698 705 711 718 727 735 739 746 750 756 761 768 777 785 791 796 800 805 810 815 819 824 828 832 835 837 842
772 765 757 746 737 727 709 708 680 676 673 667 661 661 658 655 651 651 652 659 676 686 691 699 707 712 719 726 731 738 745 750 756 763 771 779 786 791 795 800 805 810 814 819 824 828 831 834 837
768 750 729 717 722 720 690 695 677 670 666 660 654 651 649 649 646 645 647 654 664 678 686 691 698 704 712 719 725 730 737 742 749 755 763 771 778 785 789 795 800 805 810 814 819 823 827 829 832
774 749 711 691 701 692 670 679 667 665 660 658 658 654 652 650 643 642 642 646 655 664 677 684 690 696 703 711 717 722 730 736 741 746 752 762 769 776 782 788 794 799 805 810 814 818 822 825 827
782 780 775 753 698 689 684 679 691 698 689 685 683 666 658 657 654 646 638 638 647 655 668 677 682 689 695 703 709 714 722 730 735 741 746 753 759 767 776 781 787 794 800 805 809 812 816 819 823
792 782 780 773 734 723 693 677 684 713 716 718 708 699 683 675 667 659 651 642 641 649 658 668 674 680 686 693 701 705 712 720 726 734 740 746 753 760 768 774 780 787 793 798 802 805 809 813 816
792 788 784 766 750 716 677 735 748 738 737 734 728 719 706 696 684 672 659 649 643 642 649 660 669 672 678 686 692 696 701 710 718 727 733 740 747 754 761 768 774 780 785 790 795 799 802 806 809
787 789 798 789 773 745 725 755 777 772 759 752 743 734 722 707 693 680 665 649 642 639 643 649 660 667 673 679 684 690 698 704 713 719 726 733 740 747 753 761 767 773 777 782 788 792 795 798 802
789 793 794 790 765 766 759 764 787 780 766 759 753 741 727 713 700 687 674 660 641 636 634 642 651 659 664 673 681 689 696 703 708 714 722 728 735 742 748 755 761 766 771 775 780 784 788 792 796